NORTHEAST SUFFOLK  -  Rip Current Statement Rip Current Statement        NORTHERN NASSAU  -  Rip Current Statement Rip Current Statement        NORTHERN QUEENS  -  Rip Current Statement Rip Current Statement        NORTHWEST SUFFOLK  -  Rip Current Statement Rip Current Statement        SOUTHEAST SUFFOLK  -  Rip Current Statement Rip Current Statement        SOUTHERN NASSAU  -  Rip Current Statement Rip Current Statement        SOUTHERN QUEENS  -  Rip Current Statement Rip Current Statement        SOUTHWEST SUFFOLK  -  Rip Current Statement Rip Current Statement      

Active alerts

Northern Queens
  Details for Northern Queens Rip Current Statement
Southern Queens
  Details for Southern Queens Rip Current Statement
Northern Nassau
  Details for Northern Nassau Rip Current Statement
Southern Nassau
  Details for Southern Nassau Rip Current Statement
Northwest Suffolk
  Details for Northwest Suffolk Rip Current Statement
Southwest Suffolk
  Details for Southwest Suffolk Rip Current Statement
Northeast Suffolk
  Details for Northeast Suffolk Rip Current Statement
Southeast Suffolk
  Details for Southeast Suffolk Rip Current Statement


WXM80 ListenWXM80 Stop

You find our weather info also at:

UK Metoffice

WeatherCloud

Weather Underground

Northeastern Weather Network

AWEKAS

Citizen Weather Observer Program (CWOP)

HAMweather, WeatherForYou, PWS Weather


Weather Underground History page Text

Daily Summary for September 16, 2017 Units:  Metric    English   Both
« Previous Day
Next Day »
Daily Weekly Monthly Yearly Custom
  High: Low: Average:
Temperature: 26.1 °C 19.3 °C 22.3 °C
Dew Point: 22.2 °C 18.1 °C 20.5 °C
Humidity: 96 % 78 % 90 %
Wind Speed: 6.3 km/h 0 km/h 0.5 km/h
Wind Gust: 11.3 km/h - -
Wind:- - ENE
Pressure: 1019.5 hPa 1017.2 hPa -
Precipitation: 0 mm    
Historical Graphs
 
 
Tabular Data for September 16, 2017
Time Temperature Dew Point Pressure Wind Wind Speed Wind Gust Humidity Rainfall Rate (Hourly)
00:00 21.7 °C 20.3 °C 1017.2 hPa SE 0.3 km/h 1.9 km/h 92 % 0 mm
00:05 21.7 °C 20.3 °C 1017.2 hPa SE 0.3 km/h 3.7 km/h 92 % 0 mm
00:10 21.7 °C 20.3 °C 1017.2 hPa Calm     92 % 0 mm
00:15 21.7 °C 20.3 °C 1017.2 hPa Calm     92 % 0 mm
00:20 21.7 °C 20.3 °C 1017.5 hPa Calm     92 % 0 mm
00:25 21.7 °C 20.3 °C 1017.5 hPa Calm     92 % 0 mm
00:30 21.6 °C 20.3 °C 1017.5 hPa Calm   1.6 km/h 92 % 0 mm
00:35 21.7 °C 20.5 °C 1017.5 hPa Calm     93 % 0 mm
00:40 21.6 °C 20.3 °C 1017.5 hPa Calm     92 % 0 mm
00:45 21.6 °C 20.4 °C 1017.5 hPa Calm     93 % 0 mm
00:50 21.7 °C 20.5 °C 1017.5 hPa Calm     93 % 0 mm
00:56 21.6 °C 20.4 °C 1017.5 hPa Calm     93 % 0 mm
01:01 21.6 °C 20.4 °C 1017.5 hPa Calm     93 % 0 mm
01:06 21.6 °C 20.3 °C 1017.5 hPa Calm     92 % 0 mm
01:11 21.6 °C 20.2 °C 1017.5 hPa Calm     92 % 0 mm
01:16 21.6 °C 20.2 °C 1017.5 hPa Calm     92 % 0 mm
01:21 21.5 °C 20.2 °C 1017.5 hPa Calm     92 % 0 mm
01:26 21.5 °C 20.2 °C 1017.5 hPa Calm     92 % 0 mm
01:31 21.4 °C 20.1 °C 1017.5 hPa Calm     92 % 0 mm
01:36 21.4 °C 20.1 °C 1017.5 hPa Calm     92 % 0 mm
01:41 21.4 °C 20.1 °C 1017.5 hPa Calm     92 % 0 mm
01:46 21.3 °C 20 °C 1017.2 hPa Calm     92 % 0 mm
01:51 21.3 °C 20 °C 1017.2 hPa Calm     92 % 0 mm
01:56 21.3 °C 19.9 °C 1017.5 hPa Calm     92 % 0 mm
02:01 21.2 °C 19.9 °C 1017.2 hPa Calm     92 % 0 mm
02:06 21.2 °C 19.8 °C 1017.2 hPa Calm     92 % 0 mm
02:12 21.2 °C 19.8 °C 1017.2 hPa Calm     92 % 0 mm
02:17 21.2 °C 19.8 °C 1017.2 hPa Calm     92 % 0 mm
02:22 21.1 °C 19.8 °C 1017.2 hPa Calm     92 % 0 mm
02:27 21.1 °C 19.9 °C 1017.2 hPa Calm     93 % 0 mm
02:32 21.1 °C 19.9 °C 1017.2 hPa Calm     93 % 0 mm
02:37 21.1 °C 19.9 °C 1017.5 hPa Calm     93 % 0 mm
02:42 21.1 °C 19.9 °C 1017.2 hPa Calm     93 % 0 mm
02:47 21 °C 19.8 °C 1017.5 hPa Calm     93 % 0 mm
02:52 21 °C 19.8 °C 1017.2 hPa Calm     93 % 0 mm
02:57 21 °C 19.8 °C 1017.2 hPa Calm     93 % 0 mm
03:02 20.9 °C 19.8 °C 1017.2 hPa Calm     93 % 0 mm
03:07 20.9 °C 19.8 °C 1017.2 hPa Calm     93 % 0 mm
03:12 20.9 °C 19.8 °C 1017.2 hPa Calm     93 % 0 mm
03:17 20.9 °C 19.8 °C 1017.2 hPa Calm     93 % 0 mm
03:23 20.9 °C 19.7 °C 1017.2 hPa Calm     93 % 0 mm
03:28 20.9 °C 19.8 °C 1017.2 hPa Calm     93 % 0 mm
03:33 20.9 °C 19.8 °C 1017.2 hPa Calm     93 % 0 mm
03:38 20.9 °C 19.9 °C 1017.2 hPa Calm     94 % 0 mm
03:43 20.9 °C 19.9 °C 1017.2 hPa Calm     94 % 0 mm
03:48 20.9 °C 19.9 °C 1017.2 hPa Calm     94 % 0 mm
03:53 20.9 °C 19.9 °C 1017.5 hPa Calm     94 % 0 mm
03:58 20.9 °C 19.9 °C 1017.5 hPa Calm     94 % 0 mm
04:03 20.9 °C 19.9 °C 1017.5 hPa Calm     94 % 0 mm
04:08 20.9 °C 19.9 °C 1017.5 hPa Calm     94 % 0 mm
04:13 20.9 °C 19.9 °C 1017.5 hPa Calm     94 % 0 mm
04:18 20.9 °C 19.9 °C 1017.2 hPa Calm     94 % 0 mm
04:24 20.9 °C 19.9 °C 1017.2 hPa Calm     94 % 0 mm
04:29 21.1 °C 20.2 °C 1017.5 hPa Calm     95 % 0 mm
04:34 21.1 °C 20.2 °C 1017.2 hPa Calm     95 % 0 mm
04:39 21.1 °C 20.3 °C 1017.2 hPa Calm     95 % 0 mm
04:44 21.1 °C 20.3 °C 1017.2 hPa Calm     95 % 0 mm
04:49 21.2 °C 20.3 °C 1017.2 hPa Calm     95 % 0 mm
04:55 21.2 °C 20.4 °C 1017.5 hPa Calm     95 % 0 mm
05:00 21.2 °C 20.6 °C 1017.5 hPa Calm     96 % 0 mm
05:05 21.3 °C 20.6 °C 1017.5 hPa Calm     96 % 0 mm
05:10 21.3 °C 20.6 °C 1017.5 hPa Calm     96 % 0 mm
05:15 21.3 °C 20.6 °C 1017.5 hPa Calm     96 % 0 mm
05:20 21.3 °C 20.6 °C 1017.5 hPa Calm     96 % 0 mm
05:25 21.2 °C 20.6 °C 1017.5 hPa Calm     96 % 0 mm
05:30 21.2 °C 20.6 °C 1017.5 hPa Calm     96 % 0 mm
05:35 21.2 °C 20.6 °C 1017.5 hPa Calm     96 % 0 mm
05:40 21.2 °C 20.6 °C 1017.5 hPa Calm     96 % 0 mm
05:45 21.2 °C 20.6 °C 1017.8 hPa Calm     96 % 0 mm
05:50 21.2 °C 20.6 °C 1017.8 hPa Calm     96 % 0 mm
05:56 21.2 °C 20.6 °C 1017.8 hPa Calm     96 % 0 mm
06:01 21.2 °C 20.6 °C 1017.8 hPa Calm     96 % 0 mm
06:06 21.2 °C 20.6 °C 1018.2 hPa Calm     96 % 0 mm
06:11 21.2 °C 20.6 °C 1018.2 hPa Calm     96 % 0 mm
06:16 21.2 °C 20.6 °C 1018.2 hPa Calm     96 % 0 mm
06:21 21.2 °C 20.6 °C 1018.2 hPa Calm     96 % 0 mm
06:26 21.2 °C 20.6 °C 1018.2 hPa Calm     96 % 0 mm
06:31 21.2 °C 20.6 °C 1018.5 hPa Calm     96 % 0 mm
06:36 21.2 °C 20.6 °C 1018.5 hPa Calm     96 % 0 mm
06:41 21.2 °C 20.6 °C 1018.5 hPa SE 0.3 km/h 1.6 km/h 96 % 0 mm
06:46 21.2 °C 20.6 °C 1018.5 hPa Calm     96 % 0 mm
06:51 21.2 °C 20.6 °C 1018.5 hPa Calm   1.9 km/h 96 % 0 mm
06:52 21.2 °C 20.6 °C 1018.5 hPa Calm   1.9 km/h 96 % 0 mm
06:57 21.2 °C 20.6 °C 1018.5 hPa Calm     96 % 0 mm
07:02 21.2 °C 20.6 °C 1018.5 hPa Calm     96 % 0 mm
07:07 21.2 °C 20.6 °C 1018.5 hPa SE 0.8 km/h 1.9 km/h 96 % 0 mm
07:12 21.2 °C 20.5 °C 1018.5 hPa Calm     96 % 0 mm
07:17 21.2 °C 20.5 °C 1018.5 hPa Calm     96 % 0 mm
07:22 21.2 °C 20.5 °C 1018.5 hPa Calm     96 % 0 mm
07:27 21.2 °C 20.6 °C 1018.5 hPa Calm     96 % 0 mm
07:32 21.2 °C 20.5 °C 1018.8 hPa Calm     96 % 0 mm
07:37 21.2 °C 20.6 °C 1018.8 hPa Calm     96 % 0 mm
07:42 21.2 °C 20.6 °C 1018.8 hPa Calm     96 % 0 mm
07:47 21.2 °C 20.6 °C 1018.8 hPa Calm   3.7 km/h 96 % 0 mm
07:52 21.3 °C 20.6 °C 1018.8 hPa Calm     96 % 0 mm
07:58 21.3 °C 20.6 °C 1018.8 hPa Calm     96 % 0 mm
08:03 21.3 °C 20.6 °C 1018.8 hPa Calm     96 % 0 mm
08:08 21.3 °C 20.7 °C 1018.8 hPa Calm     96 % 0 mm
08:18 21.3 °C 20.7 °C 1018.8 hPa Calm     96 % 0 mm
08:23 21.3 °C 20.7 °C 1019.2 hPa Calm     96 % 0 mm
08:28 21.4 °C 20.7 °C 1019.2 hPa Calm     96 % 0 mm
08:33 21.4 °C 20.7 °C 1018.8 hPa Calm     96 % 0 mm
08:43 21.4 °C 20.8 °C 1019.2 hPa Calm     96 % 0 mm
08:48 21.5 °C 20.8 °C 1019.2 hPa Calm     96 % 0 mm
08:53 21.6 °C 20.9 °C 1019.2 hPa Calm     96 % 0 mm
08:59 21.6 °C 20.9 °C 1019.2 hPa Calm     96 % 0 mm
09:04 21.7 °C 21 °C 1019.5 hPa Calm     96 % 0 mm
09:09 21.7 °C 21 °C 1019.5 hPa Calm     96 % 0 mm
09:14 21.7 °C 21.1 °C 1019.5 hPa SE 0.5 km/h 1.9 km/h 96 % 0 mm
09:19 21.8 °C 21.1 °C 1019.5 hPa Calm   1.9 km/h 96 % 0 mm
09:29 21.8 °C 21 °C 1019.5 hPa NE 0.3 km/h 3.7 km/h 95 % 0 mm
09:34 21.8 °C 21 °C 1019.5 hPa Calm     95 % 0 mm
09:39 21.9 °C 21.1 °C 1019.5 hPa Calm     95 % 0 mm
09:44 21.9 °C 21.1 °C 1019.5 hPa Calm     95 % 0 mm
09:49 21.9 °C 21.1 °C 1019.5 hPa Calm     95 % 0 mm
09:54 22 °C 21.2 °C 1019.5 hPa NE 0.3 km/h 1.6 km/h 95 % 0 mm
10:00 22.1 °C 21.1 °C 1019.5 hPa Calm     94 % 0 mm
10:05 22.2 °C 21.2 °C 1019.5 hPa Calm   1.9 km/h 94 % 0 mm
10:10 22.2 °C 21.2 °C 1019.5 hPa Calm   1.6 km/h 94 % 0 mm
10:15 22.3 °C 21.3 °C 1019.5 hPa Calm   1.6 km/h 94 % 0 mm
10:20 22.3 °C 21.3 °C 1019.5 hPa ENE 0.2 km/h 1.9 km/h 94 % 0 mm
10:25 22.4 °C 21.4 °C 1019.5 hPa Calm   1.9 km/h 94 % 0 mm
10:30 22.4 °C 21.3 °C 1019.5 hPa ENE 0.2 km/h 1.9 km/h 93 % 0 mm
10:35 22.5 °C 21.3 °C 1019.5 hPa ENE 0.2 km/h 1.9 km/h 93 % 0 mm
10:40 22.6 °C 21.2 °C 1019.5 hPa Calm   1.9 km/h 92 % 0 mm
10:45 22.6 °C 21.2 °C 1019.5 hPa Calm   1.9 km/h 92 % 0 mm
10:50 22.6 °C 21.2 °C 1019.5 hPa Calm     92 % 0 mm
10:55 22.7 °C 21.3 °C 1019.5 hPa ENE 0.2 km/h 1.9 km/h 92 % 0 mm
11:01 22.7 °C 21.3 °C 1019.5 hPa Calm     92 % 0 mm
11:06 22.8 °C 21.2 °C 1019.5 hPa ENE 0.6 km/h 5.6 km/h 91 % 0 mm
11:11 22.8 °C 21.3 °C 1019.5 hPa ENE 0.2 km/h 3.7 km/h 91 % 0 mm
11:16 22.9 °C 21.2 °C 1019.5 hPa NE 1.8 km/h 5.6 km/h 90 % 0 mm
11:21 22.9 °C 21.2 °C 1019.5 hPa North 1.6 km/h 3.7 km/h 90 % 0 mm
11:26 23 °C 21.3 °C 1019.5 hPa NE 0.3 km/h 3.7 km/h 90 % 0 mm
11:31 23.1 °C 21.3 °C 1019.5 hPa North 2.7 km/h 5.6 km/h 90 % 0 mm
11:36 23.2 °C 21.4 °C 1019.5 hPa NNE 4.7 km/h 7.4 km/h 90 % 0 mm
11:41 23.3 °C 21.4 °C 1019.5 hPa ENE 5.8 km/h 8 km/h 89 % 0 mm
11:46 23.3 °C 21.2 °C 1019.5 hPa ENE 1.1 km/h 5.6 km/h 88 % 0 mm
11:51 23.4 °C 21.3 °C 1019.5 hPa ENE 1.3 km/h 8 km/h 88 % 0 mm
11:56 23.4 °C 21.3 °C 1019.5 hPa NNE 1.8 km/h 5.6 km/h 88 % 0 mm
12:02 23.5 °C 21.2 °C 1019.5 hPa ENE 4.5 km/h 7.4 km/h 87 % 0 mm
12:07 23.6 °C 21.7 °C 1019.5 hPa ENE 0.2 km/h 1.9 km/h 89 % 0 mm
12:12 23.8 °C 21.7 °C 1019.2 hPa NE 2.7 km/h 5.6 km/h 88 % 0 mm
12:17 23.9 °C 21.6 °C 1019.2 hPa ENE 2.7 km/h 5.6 km/h 87 % 0 mm
12:22 24.1 °C 21.8 °C 1019.2 hPa NNE 3.7 km/h 8 km/h 87 % 0 mm
12:27 24.2 °C 21.9 °C 1019.2 hPa NNE 5.3 km/h 11.3 km/h 87 % 0 mm
12:32 24.2 °C 21.7 °C 1019.2 hPa ENE 2.3 km/h 8 km/h 86 % 0 mm
12:37 24.3 °C 21.6 °C 1019.2 hPa NNE 4.7 km/h 7.4 km/h 85 % 0 mm
12:42 24.3 °C 21.7 °C 1019.2 hPa NNE 3.7 km/h 5.6 km/h 85 % 0 mm
12:47 24.4 °C 21.8 °C 1019.5 hPa NE 4 km/h 5.6 km/h 85 % 0 mm
12:52 24.5 °C 21.6 °C 1019.2 hPa NNE 4.8 km/h 7.4 km/h 84 % 0 mm
12:57 24.6 °C 21.7 °C 1019.5 hPa NE 1.4 km/h 3.7 km/h 84 % 0 mm
13:02 24.8 °C 22.1 °C 1019.2 hPa North 4.3 km/h 8 km/h 85 % 0 mm
13:08 24.9 °C 21.8 °C 1019.2 hPa North 6 km/h 9.3 km/h 83 % 0 mm
13:13 25.3 °C 22.2 °C 1019.2 hPa NE 1.3 km/h 7.4 km/h 83 % 0 mm
13:23 25.6 °C 21.9 °C 1019.2 hPa NE 3.9 km/h 9.3 km/h 80 % 0 mm
13:28 25.7 °C 21.8 °C 1018.8 hPa NE 2.6 km/h 5.6 km/h 79 % 0 mm
13:33 25.8 °C 22.1 °C 1018.8 hPa NE 6.3 km/h 7.4 km/h 80 % 0 mm
13:38 25.9 °C 22.2 °C 1018.8 hPa NNE 3.4 km/h 5.6 km/h 80 % 0 mm
13:48 26.1 °C 22.1 °C 1018.8 hPa NE 1 km/h 5.6 km/h 79 % 0 mm
13:53 25.9 °C 21.8 °C 1018.8 hPa ENE 5 km/h 9.3 km/h 78 % 0 mm
13:58 26 °C 22.1 °C 1018.8 hPa ENE 3.5 km/h 11.3 km/h 79 % 0 mm
14:03 26 °C 21.9 °C 1018.8 hPa ENE 1.4 km/h 5.6 km/h 78 % 0 mm
14:09 26 °C 21.9 °C 1018.5 hPa ENE 0.3 km/h 3.7 km/h 78 % 0 mm
14:14 25.9 °C 21.8 °C 1018.5 hPa NE 0.3 km/h 3.7 km/h 78 % 0 mm
14:19 25.7 °C 21.6 °C 1018.5 hPa ENE 2.1 km/h 5.6 km/h 78 % 0 mm
14:24 25.4 °C 21.6 °C 1018.5 hPa NE 3.4 km/h 5.6 km/h 79 % 0 mm
14:29 25.3 °C 21.6 °C 1018.5 hPa ENE 0.5 km/h 3.2 km/h 80 % 0 mm
14:34 25.2 °C 21.4 °C 1018.5 hPa Calm   3.7 km/h 80 % 0 mm
14:39 25 °C 21.3 °C 1018.5 hPa ENE 0.8 km/h 3.7 km/h 80 % 0 mm
14:44 24.7 °C 21.2 °C 1018.5 hPa NE 0.6 km/h 5.6 km/h 81 % 0 mm
14:49 24.6 °C 21.3 °C 1018.5 hPa ENE 1.1 km/h 3.2 km/h 82 % 0 mm
14:54 24.4 °C 21.4 °C 1018.5 hPa Calm     83 % 0 mm
14:59 24.4 °C 21.3 °C 1018.5 hPa Calm     83 % 0 mm
15:04 24.3 °C 21.3 °C 1018.5 hPa ENE 0.2 km/h 3.7 km/h 83 % 0 mm
15:10 24.3 °C 21.4 °C 1018.2 hPa ENE 0.3 km/h 1.9 km/h 84 % 0 mm
15:15 24.3 °C 21.4 °C 1018.2 hPa ENE 0.3 km/h 1.9 km/h 84 % 0 mm
15:20 24.4 °C 21.5 °C 1018.5 hPa NE 0.5 km/h 1.9 km/h 84 % 0 mm
15:25 24.3 °C 21.3 °C 1018.2 hPa NE 0.5 km/h 1.9 km/h 83 % 0 mm
15:30 24.3 °C 21.4 °C 1018.2 hPa NE 0.3 km/h 1.9 km/h 84 % 0 mm
15:35 24.4 °C 21.5 °C 1018.2 hPa Calm     84 % 0 mm
15:40 24.4 °C 21.6 °C 1018.2 hPa NE 0.5 km/h 1.9 km/h 84 % 0 mm
15:45 24.4 °C 21.6 °C 1018.2 hPa NE 0.2 km/h 1.9 km/h 84 % 0 mm
15:50 24.5 °C 21.4 °C 1018.5 hPa NE 0.2 km/h 1.6 km/h 83 % 0 mm
15:55 24.6 °C 21.7 °C 1018.5 hPa NE 0.2 km/h 1.9 km/h 84 % 0 mm
16:00 24.8 °C 21.7 °C 1018.5 hPa NE 0.3 km/h 1.9 km/h 83 % 0 mm
16:05 25 °C 22.1 °C 1018.5 hPa NE 0.2 km/h 1.9 km/h 84 % 0 mm
16:10 25.2 °C 22.1 °C 1018.5 hPa NE 0.3 km/h 1.9 km/h 83 % 0 mm
16:16 25.3 °C 21.8 °C 1018.5 hPa NE 0.3 km/h 3.7 km/h 81 % 0 mm
16:21 25.3 °C 21.8 °C 1018.5 hPa Calm   1.6 km/h 81 % 0 mm
16:26 25.3 °C 21.6 °C 1018.2 hPa Calm   1.6 km/h 80 % 0 mm
16:31 25.3 °C 21.8 °C 1018.2 hPa Calm     81 % 0 mm
16:36 25.3 °C 21.8 °C 1018.2 hPa Calm   1.9 km/h 81 % 0 mm
16:41 25.3 °C 21.8 °C 1018.2 hPa Calm     81 % 0 mm
16:46 25.2 °C 21.9 °C 1018.2 hPa Calm   1.9 km/h 82 % 0 mm
16:51 25.1 °C 21.8 °C 1018.2 hPa Calm     82 % 0 mm
16:56 25.1 °C 21.9 °C 1018.2 hPa Calm     83 % 0 mm
17:01 25 °C 21.9 °C 1018.2 hPa Calm     83 % 0 mm
17:06 25 °C 21.9 °C 1018.2 hPa ENE 0.5 km/h 3.7 km/h 83 % 0 mm
17:12 25.1 °C 21.8 °C 1018.2 hPa Calm   5.6 km/h 82 % 0 mm
17:17 25.1 °C 21.9 °C 1018.2 hPa SSE 1.3 km/h 5.6 km/h 83 % 0 mm
17:22 25.1 °C 21.9 °C 1018.2 hPa SSE 1.4 km/h 3.7 km/h 83 % 0 mm
17:27 25 °C 21.9 °C 1018.2 hPa SE 3.2 km/h 6.4 km/h 83 % 0 mm
17:32 25 °C 21.9 °C 1017.8 hPa Calm     83 % 0 mm
17:37 25 °C 22.1 °C 1018.2 hPa SE 0.6 km/h 1.9 km/h 84 % 0 mm
17:42 25 °C 22.1 °C 1018.2 hPa Calm   1.9 km/h 84 % 0 mm
17:47 24.9 °C 22.1 °C 1018.2 hPa SSE 1.1 km/h 7.4 km/h 84 % 0 mm
17:52 24.9 °C 21.8 °C 1018.2 hPa SSE 1 km/h 5.6 km/h 83 % 0 mm
17:57 24.9 °C 21.8 °C 1018.2 hPa SE 3.7 km/h 5.6 km/h 83 % 0 mm
18:02 24.8 °C 21.6 °C 1018.2 hPa SSE 2.3 km/h 7.4 km/h 82 % 0 mm
18:13 24.6 °C 21.3 °C 1018.2 hPa SE 0.6 km/h 3.7 km/h 82 % 0 mm
18:18 24.6 °C 21.3 °C 1018.2 hPa Calm   1.9 km/h 82 % 0 mm
18:23 24.5 °C 21.4 °C 1018.2 hPa Calm     83 % 0 mm
18:28 24.4 °C 21.3 °C 1018.2 hPa SE 0.2 km/h 1.9 km/h 83 % 0 mm
18:33 24.3 °C 21 °C 1018.2 hPa SE 0.3 km/h 3.7 km/h 82 % 0 mm
18:38 24.2 °C 20.9 °C 1018.2 hPa SE 0.2 km/h 3.7 km/h 82 % 0 mm
18:43 24 °C 20.7 °C 1018.5 hPa Calm     82 % 0 mm
18:48 23.8 °C 20.8 °C 1018.5 hPa Calm     83 % 0 mm
18:53 23.8 °C 20.7 °C 1018.5 hPa Calm     83 % 0 mm
18:58 23.7 °C 20.6 °C 1018.5 hPa Calm   1.6 km/h 83 % 0 mm
19:03 23.6 °C 20.5 °C 1018.5 hPa Calm     83 % 0 mm
19:08 23.4 °C 20.6 °C 1018.5 hPa Calm     84 % 0 mm
19:13 23.3 °C 20.4 °C 1018.5 hPa Calm     84 % 0 mm
19:19 23.1 °C 20.3 °C 1018.5 hPa Calm     84 % 0 mm
19:24 23 °C 20.3 °C 1018.5 hPa Calm     85 % 0 mm
19:29 22.9 °C 20.2 °C 1018.5 hPa Calm     85 % 0 mm
19:34 22.7 °C 20.3 °C 1018.5 hPa Calm     86 % 0 mm
19:39 22.6 °C 20.2 °C 1018.5 hPa Calm     86 % 0 mm
19:44 22.5 °C 20.1 °C 1018.5 hPa Calm     86 % 0 mm
19:45 22.4 °C 20.2 °C 1018.5 hPa Calm     87 % 0 mm
19:50 22.3 °C 20.1 °C 1018.8 hPa Calm     87 % 0 mm
19:56 22.2 °C 19.9 °C 1018.5 hPa Calm     87 % 0 mm
20:01 22.1 °C 20 °C 1018.5 hPa Calm     88 % 0 mm
20:06 21.9 °C 19.9 °C 1018.8 hPa Calm     88 % 0 mm
20:11 21.8 °C 19.8 °C 1018.8 hPa Calm     88 % 0 mm
20:16 21.7 °C 19.8 °C 1018.8 hPa Calm     89 % 0 mm
20:21 21.6 °C 19.7 °C 1018.8 hPa Calm     89 % 0 mm
20:26 21.5 °C 19.6 °C 1018.8 hPa Calm     89 % 0 mm
20:31 21.4 °C 19.6 °C 1018.8 hPa Calm     89 % 0 mm
20:36 21.3 °C 19.6 °C 1018.5 hPa Calm     90 % 0 mm
20:41 21.3 °C 19.6 °C 1018.5 hPa Calm     90 % 0 mm
20:46 21.2 °C 19.4 °C 1018.5 hPa Calm   1.9 km/h 90 % 0 mm
20:51 21.1 °C 19.4 °C 1018.5 hPa Calm     90 % 0 mm
20:57 21.1 °C 19.3 °C 1018.5 hPa Calm     90 % 0 mm
21:02 20.9 °C 19.2 °C 1018.5 hPa Calm     90 % 0 mm
21:07 20.9 °C 19.2 °C 1018.5 hPa Calm     90 % 0 mm
21:12 20.8 °C 19.3 °C 1018.2 hPa Calm     91 % 0 mm
21:17 20.8 °C 19.3 °C 1018.2 hPa Calm     91 % 0 mm
21:22 20.7 °C 19.2 °C 1018.2 hPa Calm     91 % 0 mm
21:27 20.6 °C 19.1 °C 1018.5 hPa Calm     91 % 0 mm
21:28 20.6 °C 19.1 °C 1018.5 hPa Calm     91 % 0 mm
21:33 20.5 °C 19 °C 1018.5 hPa Calm     91 % 0 mm
21:34 20.5 °C 19 °C 1018.5 hPa Calm     91 % 0 mm
21:39 20.4 °C 18.9 °C 1018.5 hPa Calm     91 % 0 mm
21:44 20.4 °C 18.9 °C 1018.5 hPa Calm     91 % 0 mm
21:49 20.3 °C 18.8 °C 1018.5 hPa Calm     91 % 0 mm
21:54 20.3 °C 18.8 °C 1018.5 hPa Calm     91 % 0 mm
21:59 20.2 °C 18.7 °C 1018.5 hPa Calm     91 % 0 mm
22:04 20.2 °C 18.7 °C 1018.5 hPa Calm     91 % 0 mm
22:09 20.1 °C 18.6 °C 1018.5 hPa Calm     91 % 0 mm
22:14 20.1 °C 18.6 °C 1018.5 hPa SSW 0.3 km/h 1.9 km/h 91 % 0 mm
22:19 20.1 °C 18.6 °C 1018.5 hPa Calm     91 % 0 mm
22:24 20 °C 18.7 °C 1018.8 hPa Calm     92 % 0 mm
22:29 19.9 °C 18.6 °C 1018.5 hPa Calm     92 % 0 mm
22:34 19.9 °C 18.6 °C 1018.5 hPa Calm     92 % 0 mm
22:39 19.9 °C 18.6 °C 1018.5 hPa Calm     92 % 0 mm
22:45 19.8 °C 18.5 °C 1018.8 hPa Calm     92 % 0 mm
22:50 19.8 °C 18.4 °C 1018.8 hPa Calm     92 % 0 mm
22:55 19.7 °C 18.4 °C 1018.8 hPa Calm     92 % 0 mm
23:00 19.7 °C 18.3 °C 1018.8 hPa Calm     92 % 0 mm
23:05 19.7 °C 18.3 °C 1018.8 hPa Calm     92 % 0 mm
23:11 19.6 °C 18.2 °C 1018.8 hPa Calm     92 % 0 mm
23:16 19.6 °C 18.2 °C 1018.8 hPa Calm     92 % 0 mm
23:20 19.5 °C 18.2 °C 1018.8 hPa Calm     92 % 0 mm
23:22 19.5 °C 18.2 °C 1018.8 hPa Calm     92 % 0 mm
23:23 19.5 °C 18.2 °C 1018.8 hPa Calm     92 % 0 mm
23:25 19.5 °C 18.2 °C 1018.8 hPa Calm     92 % 0 mm
23:26 19.5 °C 18.2 °C 1018.8 hPa Calm     92 % 0 mm
23:31 19.4 °C 18.3 °C 1018.8 hPa Calm     93 % 0 mm
23:36 19.4 °C 18.3 °C 1018.8 hPa Calm     93 % 0 mm
23:41 19.4 °C 18.2 °C 1018.8 hPa Calm     93 % 0 mm
23:46 19.3 °C 18.2 °C 1018.8 hPa Calm     93 % 0 mm
23:51 19.3 °C 18.2 °C 1018.8 hPa Calm     93 % 0 mm
23:56 19.3 °C 18.1 °C 1018.8 hPa Calm     93 % 0 mm
Crab Meadow Weather
Compliments of Weather Underground - 3 mb

Script developed by  Jim McMurry - jmcmurry@mwt.net Adapted for the template by  Wim van der Kuil - Leuven-Template.eu

Astronomy: One year on Mercury is only 88 days.